Date String (YYYY-MM-DD hh:mm:ss) UTC,Instrument flags,Ambient pressure (hPa),Sample flow (lpm),Bypass flow (lpm),Sample temperature (°C),Ambient temperature (°C),ASC tube jacket temperature (°C),LED temperature (°C),Box temperature (°C),Sample RH (%),Span deviation,Mass concentration (μg/m³),Mass concentration (μg/m³),Mass concentration (μg/m³)
DateTimeUTC,F1_M11,P_M11,Q1_M11,Q2_M11,T1_M11,T2_M11,T3_M11,T4_M11,T5_M11,U1_M11,ZSPAN_M11,X0_M11,X2_M11,X1_M11
2021-12-23 18:00:00,,0817.0,4.99,0.00,26.5,25.7,00.0,35.6,28.2,12.8,0000.0,0001.06,0000.41,0000.18
2021-12-23 18:01:00,,0817.0,5.02,0.00,26.5,25.6,00.0,35.6,28.2,12.8,0000.0,0001.13,0000.45,0000.19
2021-12-23 18:02:00,,0816.9,5.00,0.00,26.5,25.6,00.0,35.6,28.2,12.8,0000.0,0001.12,0000.45,0000.18
2021-12-23 18:03:00,,0816.8,4.99,0.00,26.5,25.6,00.0,35.6,28.2,12.8,0000.0,0001.02,0000.44,0000.18
2021-12-23 18:04:00,,0817.0,5.00,0.00,26.5,25.6,00.0,35.6,28.2,12.9,0000.0,0001.69,0000.46,0000.18
2021-12-23 18:05:00,,0816.9,4.98,0.00,26.5,25.6,00.0,35.6,28.2,12.9,0000.0,0002.11,0000.46,0000.18
2021-12-23 18:06:00,,0816.8,5.01,0.00,26.5,25.6,00.0,35.6,28.2,12.9,0000.0,0003.86,0000.47,0000.17
2021-12-23 18:07:00,,0816.7,5.00,0.00,26.5,25.6,00.0,35.6,28.2,12.9,0000.0,0004.38,0000.48,0000.17
2021-12-23 18:08:00,,0816.9,4.99,0.00,26.4,25.6,00.0,35.6,28.1,12.9,0000.0,0005.28,0000.47,0000.17
2021-12-23 18:09:00,,0816.6,5.01,0.00,26.4,25.6,00.0,35.5,28.2,12.9,0000.0,0005.26,0000.46,0000.17
2021-12-23 18:10:00,,0816.6,5.00,0.00,26.4,25.6,00.0,35.5,28.1,13.0,0000.0,0005.18,0000.44,0000.17
2021-12-23 18:11:00,,0816.5,5.00,0.00,26.4,25.6,00.0,35.5,28.1,13.0,0000.0,0005.20,0000.44,0000.17
2021-12-23 18:12:00,,0816.5,5.00,0.00,26.4,25.6,00.0,35.5,28.1,13.0,0000.0,0005.16,0000.44,0000.17
2021-12-23 18:13:00,,0816.5,4.99,0.00,26.4,25.6,00.0,35.5,28.1,13.1,0000.0,0005.09,0000.42,0000.17
2021-12-23 18:14:00,,0816.4,5.01,0.00,26.4,25.6,00.0,35.5,28.1,13.1,0000.0,0005.10,0000.43,0000.17
2021-12-23 18:15:00,,0816.3,5.01,0.00,26.4,25.6,00.0,35.5,28.1,13.1,0000.0,0004.46,0000.41,0000.17
2021-12-23 18:16:00,,0816.3,5.00,0.00,26.4,25.6,00.0,35.5,28.2,13.1,0000.0,0004.12,0000.40,0000.18
2021-12-23 18:17:00,,0816.3,5.00,0.00,26.4,25.5,00.0,35.5,28.2,13.1,0000.0,0002.39,0000.39,0000.18
2021-12-23 18:18:00,,0816.2,5.01,0.00,26.4,25.5,00.0,35.5,28.2,13.1,0000.0,0002.20,0000.43,0000.19
2021-12-23 18:19:00,,0816.3,4.99,0.00,26.4,25.5,00.0,35.5,28.1,13.1,0000.0,0001.20,0000.48,0000.19
2021-12-23 18:20:00,,0816.3,5.00,0.00,26.4,25.5,00.0,35.5,28.1,13.2,0000.0,0001.65,0000.49,0000.19
2021-12-23 18:21:00,,0816.2,5.01,0.00,26.4,25.5,00.0,35.5,28.1,13.2,0000.0,0001.91,0000.48,0000.19
2021-12-23 18:22:00,,0816.2,4.99,0.00,26.4,25.5,00.0,35.5,28.1,13.2,0000.0,0001.92,0000.47,0000.19
2021-12-23 18:23:00,,0816.1,5.02,0.00,26.3,25.5,00.0,35.5,28.1,13.2,0000.0,0001.87,0000.45,0000.19
2021-12-23 18:24:00,,0816.1,4.98,0.00,26.4,25.5,00.0,35.5,28.1,13.2,0000.0,0002.26,0000.48,0000.19
2021-12-23 18:25:00,,0816.2,5.00,0.00,26.4,25.5,00.0,35.4,28.1,13.2,0000.0,0003.41,0000.53,0000.20
2021-12-23 18:26:00,,0816.0,5.01,0.00,26.3,25.5,00.0,35.4,28.1,13.3,0000.0,0003.82,0000.55,0000.20
2021-12-23 18:27:00,,0816.0,5.00,0.00,26.3,25.5,00.0,35.4,28.1,13.4,0000.0,0003.84,0000.55,0000.21
2021-12-23 18:28:00,,0816.0,4.99,0.00,26.3,25.5,00.0,35.4,28.1,13.4,0000.0,0005.87,0000.57,0000.20
2021-12-23 18:29:00,,0816.1,5.00,0.00,26.3,25.5,00.0,35.4,28.1,13.4,0000.0,0006.05,0000.55,0000.20
2021-12-23 18:30:00,,0816.0,5.00,0.00,26.3,25.5,00.0,35.4,28.1,13.4,0000.0,0006.57,0000.52,0000.20
2021-12-23 18:31:00,,0816.0,5.01,0.00,26.3,25.5,00.0,35.4,28.0,13.4,0000.0,0006.28,0000.48,0000.21
2021-12-23 18:32:00,,0816.0,5.01,0.00,26.3,25.5,00.0,35.4,28.0,13.4,0000.0,0006.33,0000.49,0000.21
2021-12-23 18:33:00,,0815.9,5.00,0.00,26.3,25.5,00.0,35.4,28.0,13.5,0000.0,0006.84,0000.49,0000.22
2021-12-23 18:34:00,,0815.8,4.99,0.00,26.3,25.5,00.0,35.4,28.0,13.5,0000.0,0006.80,0000.48,0000.22
2021-12-23 18:35:00,,0815.9,5.00,0.00,26.3,25.5,00.0,35.4,28.0,13.5,0000.0,0006.49,0000.46,0000.23
2021-12-23 18:36:00,,0815.7,5.01,0.00,26.3,25.5,00.0,35.4,28.0,13.5,0000.0,0005.56,0000.42,0000.24
2021-12-23 18:37:00,,0815.8,5.02,0.00,26.3,25.5,00.0,35.4,28.0,13.5,0000.0,0004.98,0000.43,0000.26
2021-12-23 18:38:00,,0815.6,4.99,0.00,26.3,25.5,00.0,35.4,28.0,13.5,0000.0,0005.00,0000.46,0000.27
2021-12-23 18:39:00,,0815.9,4.99,0.00,26.3,25.5,00.0,35.4,28.0,13.5,0000.0,0002.84,0000.48,0000.29
2021-12-23 18:40:00,,0815.6,5.01,0.00,26.3,25.5,00.0,35.4,28.0,13.6,0000.0,0002.53,0000.51,0000.30
2021-12-23 18:41:00,,0815.5,4.99,0.00,26.3,25.5,00.0,35.4,28.0,13.6,0000.0,0001.98,0000.50,0000.31
2021-12-23 18:42:00,,0815.5,5.02,0.00,26.3,25.5,00.0,35.4,28.0,13.6,0000.0,0003.10,0000.55,0000.33
2021-12-23 18:43:00,,0815.8,5.00,0.00,26.3,25.5,00.0,35.4,28.0,13.5,0000.0,0004.54,0000.60,0000.35
2021-12-23 18:44:00,,0815.5,4.99,0.00,26.3,25.5,00.0,35.4,28.0,13.6,0000.0,0004.18,0000.64,0000.37
2021-12-23 18:45:00,,0815.4,5.01,0.00,26.3,25.5,00.0,35.4,28.1,13.5,0000.0,0004.22,0000.69,0000.40
2021-12-23 18:46:00,,0815.4,5.00,0.00,26.3,25.5,00.0,35.4,28.1,13.5,0000.0,0004.64,0000.72,0000.42
2021-12-23 18:47:00,,0815.3,4.99,0.00,26.3,25.5,00.0,35.4,28.1,13.5,0000.0,0004.74,0000.77,0000.46
2021-12-23 18:48:00,,0815.3,5.00,0.00,26.3,25.5,00.0,35.4,28.1,13.5,0000.0,0004.81,0000.82,0000.48
2021-12-23 18:49:00,,0815.4,5.00,0.00,26.3,25.4,00.0,35.4,28.1,13.5,0000.0,0004.90,0000.86,0000.50
2021-12-23 18:50:00,,0815.3,5.01,0.00,26.3,25.4,00.0,35.4,28.0,13.6,0000.0,0004.95,0000.88,0000.54
2021-12-23 18:51:00,,0815.3,4.99,0.00,26.3,25.4,00.0,35.4,28.0,13.5,0000.0,0005.30,0000.88,0000.56
2021-12-23 18:52:00,,0815.4,5.01,0.00,26.3,25.4,00.0,35.3,28.0,13.5,0000.0,0005.78,0000.93,0000.58
2021-12-23 18:53:00,,0815.3,5.00,0.00,26.3,25.4,00.0,35.3,28.0,13.5,0000.0,0004.98,0000.97,0000.60
2021-12-23 18:54:00,,0815.4,4.99,0.00,26.3,25.4,00.0,35.3,28.0,13.5,0000.0,0003.43,0000.95,0000.62
2021-12-23 18:55:00,,0815.4,5.00,0.00,26.3,25.4,00.0,35.3,28.0,13.5,0000.0,0003.07,0000.92,0000.63
2021-12-23 18:56:00,,0815.3,5.00,0.00,26.3,25.5,00.0,35.3,28.0,13.5,0000.0,0003.04,0000.92,0000.64
2021-12-23 18:57:00,,0815.4,5.01,0.00,26.3,25.4,00.0,35.3,28.0,13.5,0000.0,0002.76,0000.94,0000.64
2021-12-23 18:58:00,,0815.3,5.00,0.00,26.3,25.4,00.0,35.3,28.0,13.5,0000.0,0002.61,0000.91,0000.62
2021-12-23 18:59:00,,0815.2,4.99,0.00,26.2,25.4,00.0,35.3,28.0,13.5,0000.0,0002.60,0000.91,0000.63
